TimeEST,TemperatureF,Dew PointF,Humidity,Sea Level PressureIn,VisibilityMPH,Wind Direction,Wind SpeedMPH,Gust SpeedMPH,PrecipitationIn,Events,Conditions,WindDirDegrees,DateUTC
12:55 AM,59.7,58.1,94,30.03,10.0,NW,11.5,18.4,N/A,,Overcast,310,2012-11-20 05:55:00
1:31 AM,60.8,57.2,88,30.02,10.0,NW,9.2,-,N/A,,Overcast,320,2012-11-20 06:31:00
1:55 AM,60.4,58.5,93,30.02,10.0,NW,11.5,-,N/A,,Overcast,320,2012-11-20 06:55:00
2:55 AM,60.3,58.3,93,30.00,10.0,NW,11.5,18.4,N/A,,Overcast,310,2012-11-20 07:55:00
3:55 AM,59.7,57.9,94,30.00,10.0,NW,10.4,-,N/A,,Overcast,310,2012-11-20 08:55:00
4:55 AM,59.9,57.9,93,30.01,10.0,NW,10.4,-,N/A,,Overcast,310,2012-11-20 09:55:00
5:55 AM,59.5,57.6,93,30.01,10.0,NW,11.5,-,N/A,,Overcast,320,2012-11-20 10:55:00
6:55 AM,59.5,57.7,94,30.02,10.0,NW,10.4,-,N/A,,Overcast,320,2012-11-20 11:55:00
7:38 AM,60.8,59.0,94,30.03,10.0,NW,9.2,-,N/A,,Overcast,320,2012-11-20 12:38:00
7:48 AM,60.8,59.0,94,30.04,10.0,NW,11.5,-,N/A,,Overcast,320,2012-11-20 12:48:00
7:55 AM,61.0,58.6,92,30.04,10.0,NW,12.7,19.6,N/A,,Overcast,320,2012-11-20 12:55:00
8:03 AM,60.8,59.0,94,30.04,10.0,NNW,11.5,19.6,N/A,,Overcast,330,2012-11-20 13:03:00
8:15 AM,62.6,59.0,88,30.04,10.0,NW,10.4,18.4,N/A,,Overcast,320,2012-11-20 13:15:00
8:43 AM,64.4,60.8,88,30.04,10.0,NNW,10.4,17.3,N/A,,Scattered Clouds,330,2012-11-20 13:43:00
8:55 AM,64.8,60.1,85,30.04,10.0,NNW,12.7,18.4,N/A,,Partly Cloudy,340,2012-11-20 13:55:00
9:37 AM,68.0,60.8,78,30.05,10.0,North,13.8,26.5,N/A,,Mostly Cloudy,350,2012-11-20 14:37:00
9:55 AM,68.2,60.8,77,30.05,10.0,NNW,12.7,24.2,N/A,,Overcast,340,2012-11-20 14:55:00
10:46 AM,69.8,60.8,73,30.05,10.0,North,17.3,24.2,N/A,,Scattered Clouds,350,2012-11-20 15:46:00
10:55 AM,70.0,61.2,73,30.05,10.0,North,17.3,24.2,N/A,,Scattered Clouds,350,2012-11-20 15:55:00
11:10 AM,69.8,60.8,73,30.04,10.0,NNW,17.3,26.5,N/A,,Mostly Cloudy,340,2012-11-20 16:10:00
11:55 AM,69.6,61.0,74,30.03,10.0,NNW,17.3,20.7,N/A,,Mostly Cloudy,340,2012-11-20 16:55:00
12:55 PM,69.6,60.6,73,30.01,10.0,NNW,17.3,25.3,N/A,,Mostly Cloudy,340,2012-11-20 17:55:00
1:55 PM,69.1,60.3,73,29.99,10.0,NNW,16.1,25.3,N/A,,Overcast,340,2012-11-20 18:55:00
2:32 PM,68.0,60.8,78,29.99,10.0,NNW,12.7,25.3,N/A,,Mostly Cloudy,330,2012-11-20 19:32:00
2:55 PM,66.9,59.7,78,29.99,10.0,NNW,13.8,24.2,N/A,,Overcast,330,2012-11-20 19:55:00
3:55 PM,66.2,60.3,81,29.99,10.0,NNW,15.0,23.0,N/A,,Overcast,340,2012-11-20 20:55:00
4:55 PM,64.4,59.4,84,29.99,10.0,NNW,12.7,21.9,N/A,,Overcast,330,2012-11-20 21:55:00
5:44 PM,64.4,59.0,83,29.99,10.0,NNW,12.7,20.7,N/A,,Overcast,340,2012-11-20 22:44:00
5:55 PM,63.9,58.6,83,29.99,10.0,NNW,13.8,-,N/A,,Overcast,330,2012-11-20 22:55:00
6:34 PM,64.4,59.0,83,29.99,10.0,NNW,13.8,20.7,N/A,,Scattered Clouds,340,2012-11-20 23:34:00
6:55 PM,63.5,59.0,85,29.99,10.0,NNW,10.4,20.7,N/A,,Clear,330,2012-11-20 23:55:00
7:55 PM,63.3,58.6,85,30.01,10.0,NNW,11.5,18.4,N/A,,Partly Cloudy,330,2012-11-21 00:55:00
8:55 PM,62.6,58.5,86,30.02,10.0,NNW,8.1,-,N/A,,Clear,330,2012-11-21 01:55:00
9:55 PM,63.3,57.9,83,30.02,10.0,NNW,8.1,-,N/A,,Clear,340,2012-11-21 02:55:00
10:55 PM,63.5,57.7,81,30.02,10.0,NNW,8.1,-,N/A,,Clear,340,2012-11-21 03:55:00
11:55 PM,64.0,57.2,78,30.01,10.0,North,6.9,-,N/A,,Clear,350,2012-11-21 04:55:00